This demonstration page uses our WeatherBlox Daily Observations layout. Learn more.

Left ArrowRight Arrow

34.02893, -84.19858

Hourly Observations for May 14, 2022

Temp ( °F °C ) Dew Point ( °F °C ) Humidity (%) Winds ( mph kmh ) Pressure ( in mb ) Visibility ( mi km ) Precip ( " mm )
12:53 am 00:53 Clear 64 17.8 61 16.1 90 90 Calm 29.99 1016 10 16 0.00 0.00
1:53 am 01:53 Clear 63 17.2 61 16.1 93 93 Calm 29.99 1016 10 16 0.00 0.00
2:53 am 02:53 Clear 62 16.7 60 15.6 93 93 VRB 3 6 29.98 1015 10 16 0.00 0.00
3:53 am 03:53 Clear 61 16.1 59 15 93 93 VRB 3 6 29.96 1015 10 16 0.00 0.00
4:53 am 04:53 Clear 60 15.6 59 15 96 96 Calm 29.98 1015 10 16 0.00 0.00
5:12 am 05:12 Mostly Cloudy 60 15.6 59 15 96 96 Calm 30.01 1016 10 16 0.00 0.00
5:41 am 05:41 Cloudy 61 16.1 60 15.6 97 97 Calm 30.02 1017 10 16 0.00 0.00
5:53 am 05:53 Cloudy 62 16.7 60 15.6 93 93 Calm 30.01 1016 10 16 0.00 0.00
6:53 am 06:53 Cloudy 62 16.7 60 15.6 93 93 Calm 30.02 1017 10 16 0.00 0.00
7:53 am 07:53 Cloudy 62 16.7 61 16.1 96 96 Calm 30.04 1017 9 14 0.00 0.00
8:53 am 08:53 Cloudy 65 18.3 61 16.1 87 87 Calm 30.04 1017 10 16 0.00 0.00
9:49 am 09:49 Cloudy 66 19 63 17 88 88 SSW 3 6 30.05 1018 10 16 0.00 0.00
9:53 am 09:53 Mostly Cloudy 67 19.4 62 16.7 84 84 VRB 3 6 30.04 1017 10 16 0.00 0.00
10:32 am 10:32 Cloudy 68 20 61 16.1 78 78 WSW 3 6 30.03 1017 10 16 0.00 0.00
10:53 am 10:53 Cloudy 69 20.6 61 16.1 76 76 Calm 30.03 1017 10 16 0.00 0.00
11:16 am 11:16 Partly Cloudy 71 21.7 62 16.7 73 73 Calm 30.03 1017 10 16 0.00 0.00
11:53 am 11:53 Sunny 73 22.8 61 16.1 66 66 SSE 6 9 30.01 1016 10 16 0.00 0.00
12:22 pm 12:22 Hazy 75 23.9 61 16.1 62 62 VRB 3 6 30.00 1016 2 3 0.00 0.00
12:30 pm 12:30 Mostly Cloudy with Haze 75 23.9 61 16.1 62 62 WSW 6 9 30.01 1016 3 5 0.00 0.00
12:53 pm 12:53 Mostly Sunny 79 26.1 61 16.1 54 54 Calm 29.99 1016 10 16 0.00 0.00
1:53 pm 13:53 Partly Cloudy 77 25 59 15 54 54 SW 6 9 29.98 1015 10 16 0.00 0.00
2:53 pm 14:53 Hazy 79 26.1 58 14.4 49 49 WSW 5 7 29.96 1015 1 2 0.00 0.00
3:03 pm 15:03 Mostly Cloudy with Haze 81 27.2 58 14.4 45 45 WNW 5 7 29.94 1014 1 1 0.00 0.00
3:11 pm 15:11 Hazy 80 26.7 57 13.9 45 45 Calm 29.94 1014 3 4 0.00 0.00
3:18 pm 15:18 Partly Cloudy 79 26.1 58 14.4 49 49 VRB 3 6 29.93 1014 9 14 0.00 0.00
3:53 pm 15:53 Mostly Cloudy 82 27.8 58 14.4 44 44 S 3 6 29.93 1014 10 16 0.00 0.00
4:53 pm 16:53 Mostly Sunny 82 27.8 58 14.4 44 44 Calm 29.91 1013 10 16 0.00 0.00
5:53 pm 17:53 Mostly Sunny 81 27.2 58 14.4 45 45 VRB 7 11 29.91 1013 10 16 0.00 0.00
6:53 pm 18:53 Sunny 79 26.1 59 15 50 50 S 6 9 29.90 1012 10 16 0.00 0.00
7:53 pm 19:53 Sunny 77 25 59 15 54 54 S 5 7 29.90 1013 10 16 0.00 0.00
8:53 pm 20:53 Clear 73 22.8 60 15.6 64 64 S 5 7 29.92 1013 10 16 0.00 0.00
9:53 pm 21:53 Clear 71 21.7 61 16.1 71 71 S 3 6 29.94 1014 10 16 0.00 0.00
10:53 pm 22:53 Clear 68 20 61 16.1 78 78 Calm 29.95 1014 10 16 0.00 0.00
11:53 pm 23:53 Clear 67 19.4 61 16.1 81 81 SSE 3 6 29.96 1015 10 16 0.00 0.00

Powered by AerisWeather